[ hide orbit diagram ]
For accurate long-term ephemerides, please instead use our Horizons system.This orbit viewer was implemented using two-body methods, and hence should not be used for determining accurate long-term trajectories (over several years or decades) or planetary encounter circumstances.
[ revert to old Java-based viewer ]
Orbital Elements at Epoch 2458600.5 (2019-Apr-27.0) TDB
Reference: JPL 15 (heliocentric ecliptic J2000)
Element | Value | Uncertainty (1-sigma) | Units |
e | .1385886456189642 | 5.443e-08 | |
a | 2.381016069982267 | 2.3403e-08 | au |
q | 2.051034277646436 | 1.2436e-07 | au |
i | 6.669465629090747 | 6.2344e-06 | deg |
node | 150.2709180875328 | 3.8491e-05 | deg |
peri | 201.309516141054 | 5.5645e-05 | deg |
M | 329.2782914135811 | 3.197e-05 | deg |
tp | 2458715.020907603246 (2019-Aug-19.52090760) | 0.00011833 | TDB |
period | 1341.967248377384 3.67 | 1.9785e-05 5.417e-08 | d yr |
n | .2682628808082221 | 3.9551e-09 | deg/d |
Q | 2.710997862318099 | 2.6646e-08 | au |
|
| | Orbit Determination Parameters
Additional Information
|
[ show covariance matrix ]
Physical Parameter Table
Parameter |
Symbol |
Value |
Units |
Sigma |
Reference |
Notes |
absolute magnitude |
H |
17.7 |
|
n/a |
MPO446756 |
|
|
442764 (2012 XL62) Discovered 2008-Sep-04 by Spacewatch at Kitt Peak |
Reference: | Last Updated: 2015-09-02 |
|
|